Las Vegas, NV

11:37 AM PDT on August 29, 2016 (GMT -0700)
McCarran International

Weather History for KLAS - February, 2014

Change the Weather History Date:

Wednesday, February 26, 2014

  Actual Average Record
Temperature  
Mean Temperature 63 °F 56 °F  
Max Temperature 74 °F 65 °F 87 °F (1986)
Min Temperature 52 °F 46 °F 28 °F (1971)
Degree Days  
Heating Degree Days 2 10  
Month to date heating degree days 212 321  
Since 1 July heating degree days 1376 1673  
Cooling Degree Days 0 0  
Month to date cooling degree days 2 0  
Year to date cooling degree days 2 0  
Growing Degree Days 12 (Base 50)    
Moisture  
Dew Point 29 °F    
Average Humidity 29    
Maximum Humidity 39    
Minimum Humidity 19    
Precipitation  
Precipitation 0.00 in 0.03 in 0.57 in (2001)
Month to date precipitation T 0.71  
Year to date precipitation T 1.25  
Snow  
Snow 0.00 in 0.00 in T in (1996)
Month to date snowfall 0.0 0.1  
Since 1 July snowfall 0.0 0.3  
Snow Depth 0.00 in    
Sea Level Pressure  
Sea Level Pressure 29.85 in    
Wind  
Wind Speed 10 mph (SSW)    
Max Wind Speed 31 mph    
Max Gust Speed 38 mph    
Visibility 10 miles    
Events      
T = Trace of Precipitation, MM = Missing Value Source: NWS Daily Summary

Daily Weather History Graph

Daily Weather History Graph

Search for Another Location

Airport or City:

Trip Planner

Search our weather history database for the weather conditions in past years. The results will help you decide how hot, cold, wet, or windy it might be!

Date:

Astronomy

Feb. 26, 2014 Rise Set
Actual Time 6:14 AM PST 5:32 PM PST
Civil Twilight 5:48 AM PST 5:58 PM PST
Nautical Twilight 5:19 AM PST 6:28 PM PST
Astronomical Twilight 4:49 AM PST 6:58 PM PST
Moon 4:00 AM PST (2/26) 2:55 PM PST (2/26)
Length of Visible Light 12h 09m
Length of Day
11h 18m
Waning Crescent, 9% of the Moon is Illuminated
Feb 26
Waning Crescent
Mar 1
New
Mar 8
First Quarter
Mar 16
Full
Mar 23
Last Quarter

Hourly Weather History & Observations

Time (PST) Temp. Dew Point Humidity Pressure Visibility Wind Dir Wind Speed Gust Speed Precip Events Conditions
12:56 AM 57.0 °F 21.0 °F 25% 29.87 in 10.0 mi SW 5.8 mph - N/A   Scattered Clouds
1:56 AM 55.0 °F 21.9 °F 28% 29.87 in 10.0 mi SSW 9.2 mph - N/A   Scattered Clouds
2:56 AM 55.0 °F 21.9 °F 28% 29.86 in 10.0 mi SSW 6.9 mph - N/A   Mostly Cloudy
3:56 AM 54.0 °F 23.0 °F 30% 29.86 in 10.0 mi SW 5.8 mph - N/A   Mostly Cloudy
4:56 AM 54.0 °F 23.0 °F 30% 29.88 in 10.0 mi WSW 5.8 mph - N/A   Scattered Clouds
5:56 AM 52.0 °F 24.1 °F 34% 29.90 in 10.0 mi SSW 6.9 mph - N/A   Mostly Cloudy
6:56 AM 54.0 °F 25.0 °F 33% 29.91 in 10.0 mi SSW 5.8 mph - N/A   Mostly Cloudy
7:56 AM 57.9 °F 26.1 °F 30% 29.93 in 10.0 mi SSW 3.5 mph - N/A   Mostly Cloudy
8:56 AM 61.0 °F 26.1 °F 26% 29.94 in 10.0 mi SSW 4.6 mph - N/A   Mostly Cloudy
9:56 AM 64.0 °F 25.0 °F 23% 29.93 in 10.0 mi South 3.5 mph - N/A   Mostly Cloudy
10:56 AM 66.9 °F 25.0 °F 21% 29.91 in 10.0 mi Calm Calm - N/A   Mostly Cloudy
11:56 AM 68.0 °F 30.0 °F 24% 29.87 in 10.0 mi Calm Calm - N/A   Mostly Cloudy
12:56 PM 71.1 °F 30.9 °F 23% 29.83 in 10.0 mi SSE 6.9 mph - N/A   Mostly Cloudy
1:56 PM 73.9 °F 33.1 °F 22% 29.79 in 10.0 mi East 6.9 mph - N/A   Mostly Cloudy
2:56 PM 73.0 °F 32.0 °F 22% 29.78 in 10.0 mi South 9.2 mph - N/A   Mostly Cloudy
3:56 PM 73.0 °F 28.9 °F 20% 29.78 in 10.0 mi WSW 15.0 mph 21.9 mph N/A   Mostly Cloudy
4:56 PM 69.1 °F 30.0 °F 23% 29.80 in 10.0 mi WSW 19.6 mph 26.5 mph N/A   Mostly Cloudy
5:56 PM 66.0 °F 35.1 °F 32% 29.81 in 10.0 mi SSW 16.1 mph 28.8 mph N/A   Mostly Cloudy
6:56 PM 66.0 °F 36.0 °F 33% 29.82 in 10.0 mi South 17.3 mph - N/A   Mostly Cloudy
7:56 PM 63.0 °F 37.9 °F 40% 29.81 in 10.0 mi South 11.5 mph - N/A   Mostly Cloudy
8:56 PM 64.9 °F 35.1 °F 33% 29.82 in 10.0 mi South 21.9 mph 27.6 mph N/A   Scattered Clouds
9:56 PM 64.9 °F 35.1 °F 33% 29.83 in 10.0 mi South 12.7 mph - N/A   Scattered Clouds
10:56 PM 64.0 °F 37.9 °F 38% 29.78 in 9.0 mi SW 27.6 mph 38.0 mph N/A   Mostly Cloudy
11:56 PM 62.1 °F 37.9 °F 41% 29.80 in 10.0 mi South 17.3 mph - N/A   Mostly Cloudy